Home   Weather   Arlington   Past weeks

Flag for USA Past Weather in Arlington, Texas, USA — Yesterday and Last 2 Weeks

Now
72 °F

Clear.


Feels Like: 77 °F
Forecast: 42 / 58 °F
Wind: 7 mph from South

Location: Arlington Municipal Airport

Current Time: Jan 24, 2017 at 7:28:55 pm

Latest Report: Jan 24, 2017 at 6:53 pm


Visibility: 10 mi

Pressure: 29.59 "Hg

Humidity: 53%

Dew Point: 54 °F

Location of ArlingtonLocation

Past Weather in Arlington — Graph

°F

Arlington Temperature Yesterday

Maximum temperature yesterday: 66 °F (at 3:53 pm)
Minimum temperature yesterday: 36 °F (at 7:53 am)
Average temperature yesterday: 52 °F

High & Low Weather Summary for the Past Weeks

 TemperatureHumidityPressure
High78 °F (Jan 10, 2:53 pm)100% (Jan 14, 5:53 pm)30.46 "Hg (Jan 14, 5:53 pm)
Low36 °F (Jan 23, 7:53 am)20% (Jan 10, 2:53 pm)29.38 "Hg (Jan 21, 2:53 pm)
Average55 °F74%29.94 "Hg
* Reported Jan 9 5:53 pm — Jan 24 5:53 pm, Arlington, Weather by CustomWeather, © 2017

Note: Actual official high and low records may vary slightly from our data, if they occured in-between our weather recording intervals... More about our weather records

Advertising

Arlington Weather History for the Previous 24 Hours

Scroll right to see more
 ConditionsComfort  
Time TempWeatherWind HumidityBarometerVisibility
5:53 pm
Tue, Jan 24
74 °FClear.12 mph46%29.57 "Hg10 mi
4:53 pm77 °FSunny.16 mph40%29.55 "Hg10 mi
3:53 pm77 °FSunny.15 mph44%29.54 "Hg10 mi
2:53 pm78 °FSunny.16 mph39%29.55 "Hg10 mi
1:53 pm78 °FSunny.13 mph35%29.57 "Hg10 mi
12:53 pm76 °FSunny.15 mph35%29.59 "Hg10 mi
11:53 am72 °FSunny.12 mph38%29.63 "Hg10 mi
10:53 am66 °FSunny.18 mph45%29.66 "Hg10 mi
9:53 am62 °FSunny.16 mph43%29.65 "Hg10 mi
8:53 am56 °FSunny.13 mph51%29.66 "Hg10 mi
7:53 am52 °FSunny.10 mph61%29.67 "Hg10 mi
6:53 am52 °FClear.9 mph59%29.67 "Hg10 mi
5:53 am54 °FClear.6 mph53%29.66 "Hg10 mi
4:53 am53 °FClear.8 mph55%29.65 "Hg10 mi
3:53 am54 °FClear.10 mph53%29.66 "Hg10 mi
2:53 am54 °FClear.10 mph55%29.69 "Hg10 mi
1:53 am55 °FClear.9 mph53%29.70 "Hg10 mi
12:53 am54 °FClear.9 mph55%29.71 "Hg10 mi
11:53 pm
Mon, Jan 23
53 °FClear.7 mph59%29.74 "Hg10 mi
10:53 pm54 °FClear.9 mph59%29.76 "Hg10 mi
9:53 pm51 °FClear.5 mph63%29.76 "Hg10 mi
8:53 pm54 °FClear.8 mph57%29.77 "Hg10 mi
7:53 pm57 °FClear.10 mph49%29.77 "Hg10 mi
Weather by CustomWeather, © 2017

See weather overviewHow to use our weather pages